EW7239 Weather Reports


Display with metric or nautical units.
time (UTC)temp
F
wind
direction
speed
MPH
gust
MPH
rain 1hr
in
rain 24hr
in
rain mn
in
humidity
%
barometer
mb
20260505051853 58 220 6.0 10.0 0.00 0.00 0.00 76 1015.3
20260505051352 58 223 5.0 10.0 0.00 0.00 0.00 76 1015.3
20260505050855 58 217 5.0 9.0 0.00 0.00 0.00 77 1015.4
20260505050352 58 216 6.0 11.0 0.00 0.00 0.00 76 1015.4
20260505050123 58 223 6.0 11.0 0.00 0.00 0.00 76 1015.3
20260505041119 59 221 7.0 12.0 0.00 0.00 0.00 74 1015.1
20260505040348 59 211 6.0 12.0 0.00 0.00 0.00 73 1015.2
20260505035847 59 224 5.0 11.0 0.00 0.00 0.00 72 1015.1
20260505035619 59 220 5.0 11.0 0.00 0.00 0.00 72 1015.0
20260505034849 59 225 6.0 13.0 0.00 0.00 0.00 71 1015.0
20260505034348 59 224 7.0 13.0 0.00 0.00 0.00 70 1014.9
20260505034116 60 228 6.0 13.0 0.00 0.00 0.00 69 1014.9
20260505033346 60 219 6.0 11.0 0.00 0.00 0.00 69 1014.9
20260505032841 60 223 7.0 13.0 0.00 0.00 0.00 69 1014.9
20260505032341 60 223 8.0 13.0 0.00 0.00 0.00 68 1014.8
20260505031841 60 224 7.0 13.0 0.00 0.00 0.00 67 1014.7
20260505031107 60 224 6.0 13.0 0.00 0.00 0.00 66 1014.8
20260505030337 60 223 7.0 12.0 0.00 0.00 0.00 66 1014.7
20260505025839 60 213 8.0 13.0 0.00 0.00 0.00 65 1014.7
20260505025337 60 213 8.0 13.0 0.00 0.00 0.00 64 1014.7
20260505025109 60 217 8.0 13.0 0.00 0.00 0.00 64 1014.7
20260505024609 60 221 8.0 13.0 0.00 0.00 0.00 64 1014.6
20260505023838 61 223 8.0 13.0 0.00 0.00 0.00 64 1014.7
20260505023338 61 207 8.0 16.0 0.00 0.00 0.00 64 1014.6
20260505022837 61 220 8.0 16.0 0.00 0.00 0.00 63 1014.6
20260505022609 61 229 8.0 16.0 0.00 0.00 0.00 63 1014.5
20260505021837 61 223 8.0 16.0 0.00 0.00 0.00 62 1014.5
20260505021337 62 204 8.0 15.0 0.00 0.00 0.00 62 1014.5
20260505020836 62 229 8.0 15.0 0.00 0.00 0.00 62 1014.5
20260505020331 62 227 7.0 13.0 0.00 0.00 0.00 61 1014.5
20260505015831 62 214 8.0 13.0 0.00 0.00 0.00 61 1014.4
20260505015332 62 207 8.0 13.0 0.00 0.00 0.00 61 1014.4
20260505015101 62 223 8.0 12.0 0.00 0.00 0.00 60 1014.4
20260505014329 62 202 8.0 12.0 0.00 0.00 0.00 60 1014.4
20260505013830 63 207 9.0 16.0 0.00 0.00 0.00 59 1014.4
20260505013325 63 223 9.0 16.0 0.00 0.00 0.00 57 1014.5
20260505012824 63 220 9.0 17.0 0.00 0.00 0.00 57 1014.5
20260505012324 63 217 9.0 17.0 0.00 0.00 0.00 55 1014.5
20260505012055 64 234 9.0 14.0 0.00 0.00 0.00 56 1014.5
20260505011051 63 223 9.0 16.0 0.00 0.00 0.00 56 1014.5
20260505010320 63 218 9.0 16.0 0.00 0.00 0.00 56 1014.6
20260505005817 63 184 10.0 15.0 0.00 0.00 0.00 56 1014.6
20260505005317 63 222 9.0 16.0 0.00 0.00 0.00 56 1014.5
20260505004817 63 211 9.0 17.0 0.00 0.00 0.00 56 1014.7
20260505004317 64 214 9.0 17.0 0.00 0.00 0.00 55 1014.6
20260505003818 64 210 8.0 15.0 0.00 0.00 0.00 56 1014.7
20260505003550 64 205 8.0 15.0 0.00 0.00 0.00 56 1014.6
20260505002818 64 215 8.0 15.0 0.00 0.00 0.00 56 1014.6
20260505002317 64 212 7.0 13.0 0.00 0.00 0.00 56 1014.7
20260505001817 65 193 8.0 15.0 0.00 0.00 0.00 56 1014.7
20260505001317 64 220 9.0 17.0 0.00 0.00 0.00 56 1014.7
20260505000817 64 231 9.0 20.0 0.00 0.00 0.00 55 1014.6
20260505000318 64 218 9.0 20.0 0.00 0.00 0.00 55 1014.6
20260504235818 65 234 9.0 19.0 0.00 0.00 0.00 55 1014.6
20260504235316 65 204 8.0 15.0 0.00 0.00 0.00 54 1014.5
20260504234815 66 203 8.0 15.0 0.00 0.00 0.00 53 1014.5
20260504234316 66 208 8.0 14.0 0.00 0.00 0.00 53 1014.4
20260504233809 66 205 9.0 17.0 0.00 0.00 0.00 54 1014.3
20260504233310 66 212 9.0 17.0 0.00 0.00 0.00 53 1014.2
20260504232810 66 232 9.0 18.0 0.00 0.00 0.00 53 1014.2
20260504232310 66 228 9.0 18.0 0.00 0.00 0.00 53 1014.3
20260504231807 66 224 10.0 24.0 0.00 0.00 0.00 52 1014.3
20260504231307 67 221 10.0 24.0 0.00 0.00 0.00 53 1014.1
20260504230533 67 218 8.0 15.0 0.00 0.00 0.00 53 1014.2
20260504225759 67 223 8.0 14.0 0.00 0.00 0.00 54 1014.2
20260504225531 67 221 8.0 16.0 0.00 0.00 0.00 54 1014.3
20260504224800 67 229 9.0 18.0 0.00 0.00 0.00 54 1014.3
20260504224532 66 209 9.0 18.0 0.00 0.00 0.00 54 1014.4
20260504223800 66 207 7.0 15.0 0.00 0.00 0.00 53 1014.4
20260504223300 67 235 6.0 11.0 0.00 0.00 0.00 52 1014.4
20260504222759 66 229 7.0 11.0 0.00 0.00 0.00 52 1014.5
20260504222300 67 211 7.0 11.0 0.00 0.00 0.00 50 1014.6
20260504222028 67 215 7.0 13.0 0.00 0.00 0.00 49 1014.6
20260504221256 67 235 7.0 13.0 0.00 0.00 0.00 50 1014.6
20260504220756 67 219 7.0 11.0 0.00 0.00 0.00 49 1014.7
20260504220253 67 221 6.0 11.0 0.00 0.00 0.00 49 1014.7
20260504215754 67 217 5.0 11.0 0.00 0.00 0.00 50 1014.8
20260504215254 67 209 6.0 12.0 0.00 0.00 0.00 49 1014.8
20260504214747 67 222 6.0 12.0 0.00 0.00 0.00 49 1014.9
20260504214248 67 252 6.0 12.0 0.00 0.00 0.00 49 1014.9
20260504213747 68 221 8.0 15.0 0.00 0.00 0.00 48 1015.1
20260504213248 68 238 7.0 15.0 0.00 0.00 0.00 49 1015.1
20260504212748 67 216 6.0 15.0 0.00 0.00 0.00 50 1015.2
20260504212241 67 239 6.0 15.0 0.00 0.00 0.00 50 1015.3
20260504211743 67 210 5.0 11.0 0.00 0.00 0.00 51 1015.3
20260504211241 67 215 5.0 11.0 0.00 0.00 0.00 51 1015.3
20260504210742 67 210 6.0 15.0 0.00 0.00 0.00 51 1015.3
20260504210242 67 193 7.0 15.0 0.00 0.00 0.00 50 1015.3
20260504205738 67 190 6.0 14.0 0.00 0.00 0.00 49 1015.2
20260504205237 68 194 6.0 13.0 0.00 0.00 0.00 48 1015.3
20260504204737 68 229 7.0 13.0 0.00 0.00 0.00 48 1015.5
20260504204237 68 209 7.0 12.0 0.00 0.00 0.00 50 1015.4
20260504203737 67 205 7.0 12.0 0.00 0.00 0.00 49 1015.5
20260504203238 67 215 7.0 14.0 0.00 0.00 0.00 52 1015.5
20260504202735 66 179 8.0 14.0 0.00 0.00 0.00 51 1015.7
20260504202507 66 223 8.0 14.0 0.00 0.00 0.00 51 1015.8
20260504201736 66 211 8.0 14.0 0.00 0.00 0.00 50 1015.8
20260504201234 66 180 7.0 16.0 0.00 0.00 0.00 50 1015.7
20260504200731 66 200 8.0 16.0 0.00 0.00 0.00 49 1015.6
20260504200232 66 205 8.0 15.0 0.00 0.00 0.00 48 1015.8
20260504195728 66 243 8.0 14.0 0.00 0.00 0.00 47 1015.8
20260504195459 67 232 7.0 14.0 0.00 0.00 0.00 46 1015.8
20260504194727 67 168 6.0 13.0 0.00 0.00 0.00 46 1015.8
20260504194227 67 222 6.0 12.0 0.00 0.00 0.00 46 1015.7
20260504193727 66 225 6.0 10.0 0.00 0.00 0.00 48 1015.8
20260504193225 66 220 6.0 10.0 0.00 0.00 0.00 49 1016.0
20260504192957 67 222 5.0 10.0 0.00 0.00 0.00 48 1015.9
20260504192224 67 221 7.0 14.0 0.00 0.00 0.00 49 1015.8
20260504191723 67 211 7.0 14.0 0.00 0.00 0.00 48 1015.8
20260504191223 67 228 6.0 13.0 0.00 0.00 0.00 50 1015.8
20260504190725 67 212 5.0 12.0 0.00 0.00 0.00 50 1015.9
20260504190223 66 236 6.0 12.0 0.00 0.00 0.00 51 1015.9
20260504185723 65 242 7.0 12.0 0.00 0.00 0.00 50 1015.9
20260504185456 67 218 7.0 14.0 0.00 0.00 0.00 49 1015.8
20260504184954 67 217 7.0 14.0 0.00 0.00 0.00 50 1015.9
20260504184224 67 222 6.0 13.0 0.00 0.00 0.00 49 1016.0
20260504183719 66 217 5.0 11.0 0.00 0.00 0.00 51 1015.9
20260504183220 65 209 5.0 11.0 0.00 0.00 0.00 52 1015.8
20260504182718 65 221 6.0 11.0 0.00 0.00 0.00 51 1016.0
20260504182218 66 227 5.0 9.0 0.00 0.00 0.00 52 1015.9
20260504181718 66 255 6.0 12.0 0.00 0.00 0.00 52 1016.1
20260504181216 65 225 6.0 12.0 0.00 0.00 0.00 52 1016.2
20260504180948 65 223 5.0 12.0 0.00 0.00 0.00 53 1016.0
20260504180218 65 231 5.0 12.0 0.00 0.00 0.00 54 1016.0
20260504175715 65 212 5.0 12.0 0.00 0.00 0.00 55 1016.0
20260504175215 64 220 5.0 12.0 0.00 0.00 0.00 56 1016.0
20260504174947 64 209 6.0 12.0 0.00 0.00 0.00 58 1016.1
20260504174216 64 205 7.0 13.0 0.00 0.00 0.00 58 1016.1
20260504173715 64 232 6.0 13.0 0.00 0.00 0.00 59 1016.1
20260504173216 64 207 5.0 10.0 0.00 0.00 0.00 59 1016.0
20260504172716 64 224 5.0 11.0 0.00 0.00 0.00 60 1016.0
20260504172216 64 224 6.0 11.0 0.00 0.00 0.00 60 1015.9
20260504171944 63 229 5.0 10.0 0.00 0.00 0.00 60 1015.8
20260504171208 63 222 4.0 8.0 0.00 0.00 0.00 60 1015.9
20260504170709 63 205 4.0 9.0 0.00 0.00 0.00 61 1016.0
20260504170209 62 222 5.0 11.0 0.00 0.00 0.00 62 1015.8
20260504160203 60 221 3.0 6.0 0.00 0.00 0.00 68 1015.7
20260504150657 57 227 3.0 5.0 0.00 0.00 0.00 76 1015.6
20260504150427 57 228 3.0 8.0 0.00 0.00 0.00 76 1015.5
20260504140648 56 232 2.0 7.0 0.00 0.00 0.00 79 1015.1
20260504140144 56 232 2.0 7.0 0.00 0.00 0.00 79 1015.3
20260504130635 55 232 2.0 6.0 0.00 0.00 0.00 79 1015.4
20260504130136 55 232 2.0 6.0 0.00 0.00 0.00 79 1015.3
20260504120134 55 232 1.0 4.0 0.00 0.00 0.00 78 1014.9
20260504110628 56 232 2.0 4.0 0.00 0.00 0.00 79 1014.8
20260504110357 56 232 2.0 4.0 0.00 0.00 0.00 78 1014.9
20260504100615 57 232 3.0 7.0 0.00 0.00 0.00 76 1014.5
20260504100116 57 232 3.0 7.0 0.00 0.00 0.00 76 1014.4
20260504081830 58 236 3.0 7.0 0.00 0.00 0.00 75 1015.8
20260504081100 58 235 4.0 8.0 0.00 0.00 0.00 75 1015.9
20260504080559 58 235 4.0 8.0 0.00 0.00 0.00 75 1016.0